When you browse on this site, cookies collect data to enhance your experience and personalize the content and advertising you see.
Visit our Privacy Policy to learn more. By continuing to use the site, you agree to this use of cookies and data.

Previsão horária em Rogi

Hoje, 3 Julho, Sexta-feira

Tempo Temperatura Precipitação Vento Pressão Humidade
00:00 +15°C° 0 mm 1 m/s 735 mmHg 97%
01:00 +15°C° 0 mm 1 m/s 735 mmHg 97%
02:00 +15°C° 0 mm 2 m/s 736 mmHg 98%
03:00 +15°C° 0 mm 2 m/s 736 mmHg 98%
04:00 +16°C° 0 mm 2 m/s 736 mmHg 97%
05:00 +16°C° 0 mm 3 m/s 736 mmHg 97%
06:00 +17°C° 0 mm 3 m/s 736 mmHg 93%
07:00 +18°C° 0 mm 3 m/s 737 mmHg 89%
08:00 +18°C° 0 mm 3 m/s 737 mmHg 85%
09:00 +20°C° 0 mm 3 m/s 737 mmHg 74%
10:00 +21°C° 0 mm 3 m/s 738 mmHg 63%
11:00 +24°C° 0 mm 3 m/s 738 mmHg 52%
12:00 +24°C° 0 mm 3 m/s 738 mmHg 50%
13:00 +25°C° 0 mm 3 m/s 738 mmHg 48%
14:00 +26°C° 0 mm 3 m/s 738 mmHg 46%
15:00 +25°C° 0 mm 2 m/s 738 mmHg 48%
16:00 +25°C° 0 mm 2 m/s 738 mmHg 50%
17:00 +25°C° 0 mm 2 m/s 737 mmHg 52%
18:00 +23°C° 0 mm 1 m/s 738 mmHg 59%
19:00 +22°C° 0 mm 1 m/s 738 mmHg 67%
20:00 +18°C° 0 mm 0 m/s 738 mmHg 74%
21:00 +19°C° 0.1 mm 1 m/s 737 mmHg 79%
22:00 +19°C° 0.1 mm 1 m/s 737 mmHg 84%
23:00 +18°C° 0.1 mm 1 m/s 737 mmHg 88%

Amanhã, 4 Julho, Sábado

Tempo Temperatura Precipitação Vento Pressão Humidade
00:00 +18°C° 0.1 mm 1 m/s 737 mmHg 91%
01:00 +16°C° 0.1 mm 1 m/s 737 mmHg 93%
02:00 +16°C° 0.1 mm 1 m/s 737 mmHg 95%
03:00 +16°C° 0 mm 1 m/s 737 mmHg 94%
04:00 +18°C° 0 mm 1 m/s 737 mmHg 94%
05:00 +18°C° 0 mm 1 m/s 737 mmHg 93%
06:00 +19°C° 0.2 mm 1 m/s 737 mmHg 90%
07:00 +20°C° 0.2 mm 1 m/s 737 mmHg 86%
08:00 +22°C° 0.2 mm 1 m/s 738 mmHg 83%
09:00 +23°C° 0.2 mm 1 m/s 738 mmHg 74%
10:00 +24°C° 0.2 mm 1 m/s 738 mmHg 64%
11:00 +26°C° 0.2 mm 1 m/s 738 mmHg 55%
12:00 +26°C° 0.1 mm 2 m/s 738 mmHg 52%
13:00 +27°C° 0.1 mm 2 m/s 737 mmHg 49%
14:00 +27°C° 0.1 mm 2 m/s 737 mmHg 46%
15:00 +27°C° 0 mm 2 m/s 737 mmHg 47%
16:00 +27°C° 0 mm 2 m/s 737 mmHg 48%
17:00 +26°C° 0 mm 2 m/s 737 mmHg 49%
18:00 +24°C° 0 mm 2 m/s 737 mmHg 58%
19:00 +23°C° 0 mm 2 m/s 737 mmHg 66%
20:00 +21°C° 0 mm 1 m/s 737 mmHg 74%
21:00 +20°C° 0 mm 1 m/s 737 mmHg 77%
22:00 +19°C° 0 mm 1 m/s 737 mmHg 81%
23:00 +16°C° 0 mm 1 m/s 737 mmHg 84%

Depois de amanhã, 5 Julho, Domingo

Tempo Temperatura Precipitação Vento Pressão Humidade
00:00 +16°C° 0 mm 1 m/s 737 mmHg 84%
01:00 +16°C° 0 mm 1 m/s 737 mmHg 85%
02:00 +15°C° 0 mm 1 m/s 737 mmHg 86%
03:00 +16°C° 0 mm 1 m/s 737 mmHg 84%
04:00 +16°C° 0 mm 2 m/s 737 mmHg 83%
05:00 +16°C° 0 mm 2 m/s 737 mmHg 81%
06:00 +18°C° 0 mm 2 m/s 737 mmHg 75%
07:00 +20°C° 0 mm 2 m/s 737 mmHg 68%
08:00 +21°C° 0 mm 3 m/s 737 mmHg 61%
09:00 +22°C° 0 mm 3 m/s 737 mmHg 59%
10:00 +23°C° 0 mm 4 m/s 737 mmHg 56%
11:00 +25°C° 0 mm 4 m/s 737 mmHg 53%
12:00 +23°C° 0.2 mm 4 m/s 737 mmHg 58%
13:00 +23°C° 0.2 mm 4 m/s 737 mmHg 63%
14:00 +22°C° 0.2 mm 4 m/s 736 mmHg 67%
15:00 +22°C° 0 mm 3 m/s 736 mmHg 65%
16:00 +24°C° 0 mm 3 m/s 736 mmHg 62%
17:00 +24°C° 0 mm 3 m/s 736 mmHg 60%
18:00 +21°C° 0.2 mm 2 m/s 736 mmHg 70%
19:00 +20°C° 0.2 mm 2 m/s 736 mmHg 80%
20:00 +18°C° 0.2 mm 2 m/s 736 mmHg 91%
21:00 +18°C° 0 mm 2 m/s 735 mmHg 93%
22:00 +17°C° 0 mm 2 m/s 735 mmHg 95%
23:00 +16°C° 0 mm 2 m/s 735 mmHg 97%

6 Julho, Segunda-feira

Tempo Temperatura Precipitação Vento Pressão Humidade
00:00 +16°C° 0 mm 2 m/s 735 mmHg 97%
01:00 +16°C° 0 mm 2 m/s 735 mmHg 97%
02:00 +16°C° 0 mm 2 m/s 735 mmHg 97%
03:00 +16°C° 0 mm 3 m/s 734 mmHg 96%
04:00 +17°C° 0 mm 3 m/s 734 mmHg 95%
05:00 +17°C° 0 mm 3 m/s 734 mmHg 94%
06:00 +18°C° 0 mm 4 m/s 734 mmHg 87%
07:00 +20°C° 0 mm 4 m/s 734 mmHg 80%
08:00 +22°C° 0 mm 4 m/s 734 mmHg 73%
09:00 +23°C° 0 mm 5 m/s 734 mmHg 69%
10:00 +25°C° 0 mm 5 m/s 734 mmHg 65%
11:00 +26°C° 0 mm 5 m/s 734 mmHg 61%
12:00 +26°C° 0.1 mm 5 m/s 734 mmHg 60%
13:00 +27°C° 0.1 mm 5 m/s 733 mmHg 59%
14:00 +27°C° 0.1 mm 5 m/s 733 mmHg 58%
15:00 +26°C° 0.2 mm 5 m/s 733 mmHg 62%
16:00 +26°C° 0.2 mm 4 m/s 733 mmHg 65%
17:00 +25°C° 0.2 mm 4 m/s 733 mmHg 69%
18:00 +23°C° 0.2 mm 4 m/s 733 mmHg 76%
19:00 +22°C° 0.2 mm 3 m/s 733 mmHg 83%
20:00 +21°C° 0.2 mm 3 m/s 733 mmHg 90%
21:00 +20°C° 0.1 mm 3 m/s 733 mmHg 92%
22:00 +20°C° 0.1 mm 3 m/s 733 mmHg 93%
23:00 +19°C° 0.1 mm 3 m/s 733 mmHg 94%

7 Julho, Terça-feira

Tempo Temperatura Precipitação Vento Pressão Humidade
00:00 +19°C° 0 mm 3 m/s 733 mmHg 95%
01:00 +19°C° 0 mm 3 m/s 733 mmHg 96%
02:00 +19°C° 0 mm 2 m/s 733 mmHg 97%
03:00 +18°C° 0 mm 2 m/s 733 mmHg 96%
04:00 +18°C° 0 mm 2 m/s 734 mmHg 96%
05:00 +18°C° 0 mm 2 m/s 734 mmHg 96%
06:00 +19°C° 0 mm 2 m/s 734 mmHg 91%
07:00 +19°C° 0 mm 2 m/s 734 mmHg 87%
08:00 +19°C° 0 mm 2 m/s 734 mmHg 82%
09:00 +20°C° 0 mm 2 m/s 734 mmHg 74%
10:00 +21°C° 0 mm 2 m/s 735 mmHg 65%
11:00 +23°C° 0 mm 2 m/s 735 mmHg 56%
12:00 +23°C° 0 mm 2 m/s 735 mmHg 52%
13:00 +24°C° 0 mm 3 m/s 735 mmHg 47%
14:00 +25°C° 0 mm 3 m/s 735 mmHg 43%
15:00 +24°C° 0 mm 2 m/s 735 mmHg 47%
16:00 +23°C° 0 mm 2 m/s 735 mmHg 52%
17:00 +21°C° 0 mm 2 m/s 735 mmHg 57%
18:00 +21°C° 0 mm 1 m/s 735 mmHg 60%
19:00 +20°C° 0 mm 1 m/s 735 mmHg 64%
20:00 +19°C° 0 mm 1 m/s 735 mmHg 68%
21:00 +18°C° 0 mm 1 m/s 735 mmHg 70%
22:00 +18°C° 0 mm 1 m/s 735 mmHg 72%
23:00 +16°C° 0 mm 1 m/s 735 mmHg 73%

8 Julho, Quarta-feira

Tempo Temperatura Precipitação Vento Pressão Humidade
00:00 +15°C° 0 mm 1 m/s 736 mmHg 75%
01:00 +15°C° 0 mm 1 m/s 736 mmHg 77%
02:00 +14°C° 0 mm 1 m/s 736 mmHg 79%
03:00 +14°C° 0 mm 2 m/s 736 mmHg 79%
04:00 +14°C° 0 mm 2 m/s 736 mmHg 79%
05:00 +13°C° 0 mm 2 m/s 736 mmHg 79%
06:00 +15°C° 0 mm 2 m/s 737 mmHg 72%
07:00 +16°C° 0 mm 2 m/s 737 mmHg 64%
08:00 +17°C° 0 mm 2 m/s 737 mmHg 57%
09:00 +18°C° 0 mm 2 m/s 737 mmHg 52%
10:00 +19°C° 0 mm 2 m/s 737 mmHg 47%
11:00 +20°C° 0 mm 3 m/s 737 mmHg 42%
12:00 +21°C° 0 mm 2 m/s 737 mmHg 41%
13:00 +21°C° 0 mm 2 m/s 737 mmHg 39%
14:00 +23°C° 0 mm 2 m/s 737 mmHg 38%
15:00 +23°C° 0 mm 2 m/s 737 mmHg 40%
16:00 +21°C° 0 mm 2 m/s 737 mmHg 42%
17:00 +21°C° 0 mm 2 m/s 737 mmHg 43%
18:00 +20°C° 0 mm 2 m/s 737 mmHg 52%
19:00 +19°C° 0 mm 1 m/s 737 mmHg 61%
20:00 +16°C° 0 mm 1 m/s 737 mmHg 69%
21:00 +15°C° 0 mm 1 m/s 737 mmHg 73%
22:00 +14°C° 0 mm 1 m/s 737 mmHg 76%
23:00 +13°C° 0 mm 1 m/s 737 mmHg 80%
Mostrar mais